Погода в Бережновке

Россия / Волгоградская область     50°15′27″N   45°53′55″E
темп.,
°C
ветер,
м/с
пор.,
м/с
влажн.,
%
обл.,
%
осадки,
мм/ч
давл.,
гПа
погр.,
м
25 января, вт
вт2500:00−10всв51094100 0.0 1028211
03:00−11всв4895100 0.0 1027148
06:00−10всв3795100 0.0 1026142
09:00−9св3696100 0.0 1026160
12:00−6в349399 0.2 1025224
15:00−5в239690 0.3 1024158
18:00−8юв119795 0.3 102410
21:00−12ююз11100100 0.3 102310
26 января, ср
ср2600:00−11з119995 0.1 102215
03:00−10зсз2496100 0.1 102281
06:00−9зсз1195100 0.0 102117
09:00−8юз2294100 0.0 102143
12:00−5зюз3591100 0.0 1021231
15:00−5ююз229498 0.0 102044
18:00−8юз349775 0.0 102137
21:00−11юз349898 0.0 102240
27 января, чт
чт2700:00−10юз349795 0.1 102264
03:00−5ююз1295100 0.1 102260
06:00−4юв2294100 0.0 102148
09:00−3ю3587100 0.1 1022200
12:00−2ю459097 0.0 1021468
15:00−5юв349596 0.0 102159
18:00−9юв3598100 0.0 102061
21:00−11юв3397100 0.0 102040
28 января, пт
пт2800:00−13юв2298100 0.0 101920
03:00−14ююв2299100 0.0 101914
06:00−14ююв1198100 0.0 101810
09:00−12ююв129793 0.1 101845
12:00−8юз239487 0.0 1017155
15:00−8юз229634 0.1 101611
18:00−13ю339973 0.0 101630
21:00−12ю369890 0.0 101581
29 января, сб
сб2900:00−6ююв5109699 0.2 1014232
03:00−3ю51196100 0.6 1012355
06:00−1ююз61296100 0.6 1011400
09:00+1юз61099100 0.8 1012473
12:00+1юз6996100 0.2 1012616
15:00+1ююз61195100 0.3 1012576
18:000ююз61198100 0.1 1012472
21:00+1ююз81498100 0.9 1012692